| time (UTC) | temp C | wind direction | speed KPH | gust KPH | rain 1hr cm | rain 24hr cm | rain mn cm | humidity % | barometer mb |
| 20260504231555 | 16 | 167 | 8.0 | 24.1 | 0.00 | 0.00 | 0.00 | 50 | 1007.9 |
| 20260504230016 | 17 | 148 | 4.8 | 25.7 | 0.00 | 0.00 | 0.00 | 48 | 1007.8 |
| 20260504224535 | 17 | 180 | 4.8 | 16.1 | 0.00 | 0.00 | 0.00 | 46 | 1007.8 |
| 20260504223059 | 17 | 159 | 6.4 | 20.9 | 0.00 | 0.00 | 0.00 | 45 | 1007.6 |
| 20260504221524 | 18 | 160 | 4.8 | 16.1 | 0.00 | 0.00 | 0.00 | 45 | 1007.5 |
| 20260504220052 | 18 | 141 | 9.7 | 29.0 | 0.00 | 0.00 | 0.00 | 43 | 1007.5 |
| 20260504214512 | 19 | 151 | 9.7 | 19.3 | 0.00 | 0.00 | 0.00 | 41 | 1007.4 |
| 20260504213035 | 19 | 155 | 9.7 | 22.5 | 0.00 | 0.00 | 0.00 | 39 | 1007.3 |
| 20260504211605 | 20 | 186 | 6.4 | 24.1 | 0.00 | 0.00 | 0.00 | 38 | 1007.4 |
| 20260504211508 | 20 | 209 | 6.4 | 24.1 | 0.00 | 0.00 | 0.00 | 39 | 1007.3 |
| 20260504210027 | 20 | 192 | 11.3 | 27.4 | 0.00 | 0.00 | 0.00 | 38 | 1007.2 |
| 20260504204634 | 20 | 151 | 9.7 | 19.3 | 0.00 | 0.00 | 0.00 | 38 | 1007.2 |
| 20260504203012 | 20 | 163 | 12.9 | 25.7 | 0.00 | 0.00 | 0.00 | 37 | 1007.1 |
| 20260504201531 | 20 | 183 | 6.4 | 17.7 | 0.00 | 0.00 | 0.00 | 36 | 1007.2 |
| 20260504200057 | 20 | 185 | 11.3 | 27.4 | 0.00 | 0.00 | 0.00 | 35 | 1007.2 |
| 20260504194521 | 21 | 191 | 8.0 | 20.9 | 0.00 | 0.00 | 0.00 | 33 | 1007.2 |
| 20260504193041 | 21 | 157 | 9.7 | 27.4 | 0.00 | 0.00 | 0.00 | 32 | 1007.2 |
| 20260504191502 | 20 | 161 | 8.0 | 25.7 | 0.00 | 0.00 | 0.00 | 32 | 1007.2 |
| 20260504190023 | 21 | 190 | 8.0 | 25.7 | 0.00 | 0.00 | 0.00 | 31 | 1007.3 |
| 20260504184601 | 20 | 155 | 9.7 | 29.0 | 0.00 | 0.00 | 0.00 | 32 | 1007.5 |
| 20260504183006 | 20 | 163 | 9.7 | 22.5 | 0.00 | 0.00 | 0.00 | 30 | 1007.6 |
| 20260504181529 | 20 | 142 | 11.3 | 20.9 | 0.00 | 0.00 | 0.00 | 31 | 1007.9 |
| 20260504180053 | 20 | 170 | 9.7 | 25.7 | 0.00 | 0.00 | 0.00 | 30 | 1008.0 |
| 20260504180001 | 20 | 206 | 9.7 | 25.7 | 0.00 | 0.00 | 0.00 | 33 | 1008.0 |
| 20260504174517 | 20 | 148 | 9.7 | 25.7 | 0.00 | 0.00 | 0.00 | 32 | 1008.1 |
| 20260504173043 | 19 | 202 | 6.4 | 33.8 | 0.00 | 0.00 | 0.00 | 32 | 1008.1 |
| 20260504171559 | 19 | 194 | 8.0 | 24.1 | 0.00 | 0.00 | 0.00 | 32 | 1008.2 |
| 20260504171503 | 19 | 244 | 11.3 | 24.1 | 0.00 | 0.00 | 0.00 | 31 | 1008.0 |
| 20260504081558 | 5 | 241 | 0.0 | 1.6 | 0.00 | 0.00 | 0.00 | 73 | 1010.1 |
| 20260504050004 | 3 | 319 | 0.0 | 1.6 | 0.00 | 0.00 | 0.00 | 74 | 1010.2 |
| 20260504044527 | 3 | 360 | 0.0 | 0.0 | 0.00 | 0.00 | 0.00 | 71 | 1010.4 |
| 20260504043050 | 3 | 319 | 0.0 | 1.6 | 0.00 | 0.00 | 0.00 | 68 | 1010.4 |
| 20260504041507 | 4 | 360 | 0.0 | 3.2 | 0.00 | 0.00 | 0.00 | 66 | 1010.2 |
| 20260504040035 | 4 | 360 | 0.0 | 1.6 | 0.00 | 0.00 | 0.00 | 65 | 1010.0 |
| 20260504034609 | 4 | 319 | 0.0 | 3.2 | 0.00 | 0.00 | 0.00 | 64 | 1010.0 |
| 20260504033024 | 4 | 319 | 0.0 | 3.2 | 0.00 | 0.00 | 0.00 | 63 | 1010.0 |
| 20260504031542 | 4 | 360 | 0.0 | 0.0 | 0.00 | 0.00 | 0.00 | 64 | 1009.9 |
| 20260504030013 | 5 | 319 | 0.0 | 0.0 | 0.00 | 0.00 | 0.00 | 63 | 1009.8 |
| 20260504024534 | 5 | 360 | 0.0 | 1.6 | 0.00 | 0.00 | 0.00 | 62 | 1009.7 |
| 20260504023058 | 6 | 319 | 0.0 | 1.6 | 0.00 | 0.00 | 0.00 | 58 | 1009.6 |
| 20260504021528 | 6 | 360 | 0.0 | 0.0 | 0.00 | 0.00 | 0.00 | 54 | 1009.5 |
| 20260504020048 | 6 | 319 | 1.6 | 4.8 | 0.00 | 0.00 | 0.00 | 52 | 1009.3 |
| 20260504014516 | 6 | 360 | 0.0 | 3.2 | 0.00 | 0.00 | 0.00 | 56 | 1009.3 |
| 20260504013036 | 6 | 320 | 0.0 | 1.6 | 0.00 | 0.00 | 0.00 | 56 | 1009.2 |
| 20260504011501 | 6 | 319 | 0.0 | 0.0 | 0.00 | 0.00 | 0.00 | 56 | 1009.0 |
| 20260504010023 | 7 | 319 | 0.0 | 0.0 | 0.00 | 0.00 | 0.00 | 52 | 1008.7 |
| 20260504004552 | 7 | 360 | 0.0 | 0.0 | 0.00 | 0.00 | 0.00 | 51 | 1008.4 |
| 20260504003018 | 8 | 320 | 0.0 | 0.0 | 0.00 | 0.00 | 0.00 | 49 | 1008.4 |
| 20260504001543 | 9 | 320 | 0.0 | 0.0 | 0.00 | 0.00 | 0.00 | 46 | 1008.2 |
| 20260504000006 | 10 | 320 | 0.0 | 0.0 | 0.00 | 0.00 | 0.00 | 42 | 1008.0 |
| 20260503234542 | 11 | 360 | 0.0 | 4.8 | 0.00 | 0.00 | 0.00 | 39 | 1008.0 |
| 20260503233052 | 11 | 360 | 1.6 | 6.4 | 0.00 | 0.00 | 0.00 | 37 | 1007.9 |